Home > Weather > Grimstad > Past weeks

Flag for Norway Past Weather in Grimstad, Norway — Yesterday and Last 2 Weeks

Now
63 °F

Mild.


Feels Like: 63 °F
Forecast: 58 / 68 °F
Wind: 9 mph from South

Location: Torungen Fyr

Current Time: Jul 27, 2016 at 1:48:01 PM

Latest Report: Jul 27, 2016 at 1:00 PM


Visibility: N/A

Pressure: 29.94 "Hg

Humidity: 83%

Dew Point: 58 °F

Location of GrimstadLocation

Past Weather in Grimstad — Graph

°F

Grimstad Temperature Yesterday

Maximum temperature yesterday: 66 °F (at 1:00 PM)
Minimum temperature yesterday: 60 °F (at 7:00 AM)
Average temperature yesterday: 63 °F

High & Low Weather Summary for the Past Weeks

 TemperatureHumidityPressure
High71 °F (Jul 16, 5:00 PM)97% (Jul 15, 4:00 AM)30.15 "Hg (Jul 15, 4:00 AM)
Low54 °F (Jul 17, 6:00 AM)37% (Jul 16, 5:00 PM)29.55 "Hg (Jul 12, 12:00 PM)
Average63 °F83%29.96 "Hg
* Reported Jul 12 12:00 PM — Jul 27 12:00 PM, Grimstad, Weather by CustomWeather, © 2016

Note: Actual official high and low records may vary slightly from our data, if they occured in-between our weather recording intervals... More about our weather records

Advertising

Grimstad Weather History for the Previous 24 Hours

Scroll right to see more
 ConditionsComfort  
Time TempWeatherWind HumidityBarometerVisibility
12:00 PM
Wed, Jul 27
63 °FMild.9 mph83%29.96 "HgN/A
11:00 AM63 °FMild.8 mph82%29.96 "HgN/A
10:00 AM62 °FCool.8 mph83%29.97 "HgN/A
9:00 AM60 °FCool.1 mph89%29.98 "HgN/A
8:00 AM58 °FCool.1 mph89%29.98 "HgN/A
7:00 AM58 °FCool.1 mph90%29.98 "HgN/A
6:00 AM57 °FCool.1 mph91%29.99 "HgN/A
5:00 AM58 °FCool.2 mph89%30.00 "HgN/A
4:00 AM59 °FCool.3 mph89%30.01 "HgN/A
3:00 AM59 °FCool.6 mph87%30.01 "HgN/A
2:00 AM59 °FCool.5 mph87%30.00 "HgN/A
1:00 AM60 °FCool.7 mph84%30.01 "HgN/A
12:00 AM61 °FCool.7 mph84%30.01 "HgN/A
11:00 PM
Tue, Jul 26
62 °FCool.8 mph80%30.01 "HgN/A
10:00 PM63 °FMild.9 mph80%30.00 "HgN/A
9:00 PM64 °FMild.10 mph79%29.98 "HgN/A
8:00 PM64 °FMild.14 mph83%29.97 "HgN/A
7:00 PM65 °FMild.13 mph80%29.97 "HgN/A
6:00 PM64 °FMild.15 mph80%29.96 "HgN/A
5:00 PM65 °FMild.14 mph80%29.97 "HgN/A
4:00 PM65 °FMild.13 mph80%29.97 "HgN/A
3:00 PM64 °FMild.7 mph79%29.98 "HgN/A
2:00 PM65 °FMild.13 mph78%29.96 "HgN/A
1:00 PM66 °FMild.10 mph70%29.96 "HgN/A
Weather by CustomWeather, © 2016

See weather overviewHow to use our weather pages